www.pogodaiklimat.ru

Погода и климат >> Архив погоды >> Россия >> Калмыкия >> Ики-Бурул


ПОГОДА в Ики-Буруле

  • Прогноз погоды в Ики-Буруле
  • Монитор погоды в Ики-Буруле

АРХИВ ПОГОДЫ в Ики-Буруле

Время (UTC), дата Ветер
(напр.,м/с)
 
Видим.   Явления Облачность Т
(С)
Тd
(С)
f
(%)
Тe
(С)
Тes
(С)
Комфортность P
(гПа)
Po
(гПа)
Тmin
(С)
Tmax
(С)
R
(мм)
R24
(мм)
S
(см)
12 18.05 В 5
{10}
20 км 3/3 1000 м
[Cu hum Ci fib]
+28.4 +13.0 39 +30 +34 жарко 1009.9 997.1
15 18.05 В 4 20 км 9/4 1000 м
[Cu med, cong Ci]
+25.9 +14.8 50 +28 +29 жарко 1008.8 995.9 +28.8
18 18.05 ЮВ 4 20 км 6/0
[Ci fib]
+20.9 +14.8 68 +24 +24 комфорт 1010.4 997.4
21 18.05 В 4 20 км 8/0
[Ac trans Ci fib]
+16.2 +14.8 91 +15 +15 1010.4 997.1
00 19.05 В 3 20 км 4/0
[Ac trans]
+14.3 +13.6 96 +13 +13 1010.0 996.6
03 19.05 В 3 20 км 6/0
[Ac trans Ci fib]
+15.8 +13.0 83 +15 +16 1010.7 997.4 +13.2
06 19.05 В 4 20 км 9/0
[Ac cast Ci fib]
+21.7 +8.3 42 +23 +28 комфорт 1010.6 997.5
09 19.05 В 3 20 км 9/3 1000 м
[Cb calv Ac As]
+25.0 +9.0 36 +26 +30 жарко 1010.8 997.9
12 19.05 В 3 20 км 9/0
[Ac trans Ci]
+26.3 +9.2 34 +27 +33 жарко 1010.2 997.3
15 19.05 СВ 2 20 км 9/0
[Ac As Ci]
+25.3 +8.8 35 +26 +27 жарко 1010.8 997.9 +27.2
18 19.05 СВ 1 20 км 9/0
[Ac As]
+20.9 +10.4 51 +24 +24 комфорт 1012.5 999.4
21 19.05 В 2 20 км 6/0
[Ac trans Ci fib]
+17.1 +5.5 46 +17 +17 1012.6 999.3
00 20.05 СВ 3 20 км 3/3 1000 м
[Cb cap]
+15.4 +5.3 51 +15 +15 1013.5 1000.1
03 20.05 СВ 4 20 км 9/0
[Ac trans Ci fib]
+16.3 +5.4 48 +16 +16 1014.2 1000.8 +14.9
06 20.05 СВ 3 20 км 8/0
[Ci]
+21.9 +8.3 42 +23 +31 комфорт 1015.3 1002.2
09 20.05 СВ 2 20 км 3/0
[Ac cast Ci fib]
+25.5 +5.1 27 +25 +41 комфорт 1015.7 1002.7
12 20.05 С 3 20 км 4/0
[Ac cast Ci fib]
+26.0 +3.7 24 +25 +33 комфорт 1015.8 1002.8
15 20.05 СВ 4 20 км 8/0
[Ci]
+23.7 +3.4 27 +23 +24 комфорт 1016.5 1003.4 +26.3
18 20.05 СВ 4
{10}
20 км 1/0
[Ci fib]
+16.5 +0.6 34 +16 +16 1018.6 1005.1
21 20.05 СВ 4 20 км 4/0
[Ac cast]
+13.2 -1.3 37 +12 +12 1019.7 1006.1
00 21.05 В 4 20 км 5/0
[Ac trans]
+10.2 -0.6 47 +8 +8 1020.4 1006.6
03 21.05 В 3 20 км 3/0
[Ac cast Ci fib]
+11.4 +1.9 52 +10 +11 1021.4 1007.7 +9.0
06 21.05 В 5 20 км 3/0
[Ci fib]
+20.2 -1.2 24 +20 +26 1021.4 1008.1
09 21.05 В 3 20 км 3/0
[Ci fib]
+23.3 +1.9 24 +23 +37 комфорт 1021.2 1008.1
12 21.05 В 3 20 км 3/0
[Ci fib]
+24.6 +2.2 23 +24 +33 комфорт 1020.2 1007.2
15 21.05 В 3 20 км 3/0
[Ci fib]
+23.4 +2.0 25 +23 +24 комфорт 1019.3 1006.2 +24.7
18 21.05 В 4 20 км 6/0
[Ci sp]
+15.7 +4.3 47 +15 +15 1020.8 1007.3
21 21.05 ЮВ 3
{11}
20 км 5/0
[Ci fib]
+13.5 +6.5 63 +12 +12 1020.9 1007.3
00 22.05 ЮВ 3 20 км 9/0
[Ci]
+12.1 +7.8 75 +11 +11 1020.3 1006.7
03 22.05 В 4 20 км 9/0
[Ci]
+12.6 +7.6 72 +11 +12 1019.7 1006.1 +9.1
06 22.05 ЮВ 7-13
{13}
20 км 8/0
[Cc]
+18.6 +3.9 38 +18 +21 1018.3 1005.0
09 22.05 ЮВ 5-10
{14}
20 км 9/0
[Ac cast Ci]
+22.5 +4.0 30 +23 +29 комфорт 1015.9 1002.8
12 22.05 ЮВ 5
{12}
20 км 9/0
[Ac cast Ci sp]
+24.4 +6.6 32 +24 +28 комфорт 1014.6 1001.6
15 22.05 ЮВ 4 20 км 9/0
[Ac As]
+21.7 +7.0 39 +23 +23 комфорт 1015.0 1001.9 +24.9
18 22.05 ЮВ 3 20 км 10/4 1000 м
[Cb cap Ac und]
+18.4 +9.8 57 +19 +19 1015.3 1002.1
21 22.05 ЮВ 3 20 км 9/0
[Ac trans]
+15.8 +10.4 70 +15 +15 1014.4 1001.0
00 23.05 ЮВ 3 20 км 8/0
[Ac cast Ci fib]
+14.7 +9.6 71 +14 +14 1013.8 1000.4
03 23.05 Ю 3 20 км 6/3 600 м
[Cb cap Ac trans Ci fib]
+13.9 +10.4 79 +13 +14 1013.6 1000.1 +13.6
06 23.05 З 4 20 км 3/3 600 м
[Cu hum]
+20.8 +14.0 65 +24 +29 комфорт 1012.2 999.1
09 23.05 З 6-11
{11}
20 км в посл. час ливневой дождь 9/6 1000 м
[Cb calv Ac cast Ci fib]
+24.6 +10.8 42 +26 +28 жарко 1010.7 997.8
12 23.05 Ю 3
{11}
20 км гроза без осадков {ливн. осадки} 6/5 1000 м
[Cb calv Ac cuf]
+23.2 +12.7 52 +26 +30 жарко 1009.5 996.5
15 23.05 С 3 20 км {гроза} 6/3 1000 м
[Cb calv Ci sp]
+20.2 +10.1 52 +22 +23 комфорт 1010.1 997.0 +24.7 3
18 23.05 Ю 1 20 км {гроза} 8/3 600 м
[Cb cap Ac trans Ci sp]
+15.6 +10.3 71 +16 +16 1011.5 998.2
21 23.05 ЮВ 1 10 км слаб. ливневой дождь 10/10 300 м
[Cb cap]
+14.0 +13.1 94 +14 +14 1011.8 998.3
00 24.05 ЮЗ 1 20 км в посл. час ливневой дождь 9/6 300 м
[Cb cap Ac trans]
+14.2 +12.7 91 +14 +14 1011.0 997.6
03 24.05 З 2 20 км 9/8 600 м
[Sc Ac trans]
+15.0 +13.1 88 +15 +15 1010.8 997.4 +13.9 1
06 24.05 З 5 20 км 9/3 600 м
[Cu hum Ac trans]
+19.7 +14.9 74 +22 +24 комфорт 1010.9 997.7
09 24.05 З 5
{10}
20 км 6/6 1000 м
[Cu med, cong]
+23.4 +13.1 52 +26 +30 жарко 1010.3 997.3
12 24.05 СЗ 6-11
{11}
20 км 6/6 1000 м
[Cb calv]
+25.2 +12.4 45 +27 +29 жарко 1010.0 997.1
15 24.05 СЗ 3
{11}
20 км 8/3 1000 м
[Cu hum Ci fib]
+24.7 +10.4 41 +26 +27 жарко 1010.1 997.2 +25.8
18 24.05 В 1 20 км 8/3 600 м
[Sc diur, vesp Ci fib]
+18.3 +13.5 74 +20 +20 1011.1 997.9
21 24.05 В 2 20 км 3/0
[Ac trans]
+15.9 +12.1 78 +16 +16 1011.4 998.0
00 25.05 В 2 20 км ясно +15.0 +11.7 81 +15 +15 1011.4 998.0
03 25.05 В 3 20 км 9/0
[Ci]
+17.0 +12.7 76 +17 +18 1011.4 998.2 +14.6
06 25.05 В 4 20 км 5/0
[Cc]
+24.3 +13.9 52 +27 +34 жарко 1010.6 997.7

 

Местоположение метеостанции Ики-Бурул (Калмыкия, Россия): широта 45.80 долгота 44.63 высота над уровнем моря 113 м.

В архиве по умолчанию представлена погода в Ики-Буруле за последнюю неделю. Архивные данные за месяц целиком и за предыдущие месяцы, начиная с января 2011 года, Вы можете получить, выбрав интересующий диапазон дат из раскрывающегося списка и нажав кнопку "Ввод!".


*Определитесь, кто Вы:
робот инопланетянин человек

Внимание! Время в таблицах - всемирное. Для получения местного времени необходимо прибавить поправку, которая равна 3 ч.

Смотрите также архив погоды в соседних городах и на ближайших метеорологических станциях:

Погода в Арзгире (Ставропольский край, Россия) (56 км)
Погода в Элисте (Калмыкия, Россия) (67 км)
Погода в Яшкуле (Калмыкия, Россия) (70 км)
Погода в Дивном (Ставропольский край, Россия) (100 км)
Погода в Ремонтном (Ростовская область, Россия) (113 км)
Погода в Комсомольском (Калмыкия, Россия) (120 км)
Погода в Буденновске (Ставропольский край, Россия) (120 км)
Погода в Благодарном (Ставропольский край, Россия) (121 км)
Погода в Утте (Калмыкия, Россия) (125 км)
Погода в Светлограде (Ставропольский край, Россия) (147 км)

Пояснения к столбцам:

Ветер - указаны скорость ветра в м/с - средняя за 10 мин, порывы в срок и между сроками (в фигурных скобках) и направление, откуда дует ветер: С - северный, СВ - северо-восточный, В - восточный, ЮВ - юго-восточный, Ю - южный, ЮЗ - юго-западный, З - западный, СЗ - северо-западный.
Видимость - горизонтальная дальность видимости в метрах или километрах. При видимости от 1 до 10 км при отсутствии осадков обычно наблюдается дымка, при ухудшении видимости до 1 км и менее - туман. В сухую погоду видимость может ухудшаться дымом, пылью или мглою.
Явления - указаны атмосферные явления, наблюдавшиеся в срок или в последний час перед сроком; фигурными скобками обозначены явления, наблюдавшиеся между сроками (за 1-3 часа до срока); квадратными скобками обозначены град или гололедные отложения с указанием их диаметра в мм.
Облачность - указаны через наклонную черту общая и нижняя облачность в баллах и высота нижней границы облаков в метрах; квадратными скобками обозначены формы облаков: Ci - перистые, Cs - перисто-слоистые, Cc - перисто-кучевые, Ac - высококучевые, As - высокослоистые, Sc - слоисто-кучевые, Ns - слоисто-дождевые, Cu - кучевые, Cb - кучево-дождевые. Подробнее классификацию облаков см. в Атласе облаков (PDF).
T - Температура воздуха - температура, измеренная на высоте 2 м над землей.
Td - Температура точки росы - температура, при понижении до которой содержащийся в воздухе водяной пар достигнет насыщения.
f - Относительная влажность воздуха - влажноcть воздуха, измеренная на высоте 2 м над землей.
Te - Эффективная температура - температура, которую ощущает одетый по сезону человек в тени. Характеристика душности погоды. При расчете учитывается влияние влажности воздуха и скорости ветра на теплоощущения человека.
Tes - Эффективная температура на солнце - температура, которую ощущает человек, с поправкой на солнечный нагрев. Характеристика знойности погоды. Зависит от высоты солнца над горизонтом, облачности и скорости ветра. Ночью, в пасмурную погоду, а также при ветре 12 м/с и более поправка равна нулю.
P - Атмосферное давление - приведенное к уровню моря атмосферное давление.
Po - Атмосферное давление - измеренное на уровне метеостанции атмосферное давление.
Tmin - Минимальная температура - минимум температуры воздуха на высоте 2 м над землей.
Tmax - Максимальная температура - максимум температуры воздуха на высоте 2 м над землей.
R - Количество осадков - Количество выпавших осадков за период времени, мм. При наведении курсора мыши на число - период времени, за который выпало указанное количество осадков.
R24 - Количество осадков - Количество выпавших осадков за 24 часа, мм.
S - Снежный покров - Высота снежного покрова, см. При наведении курсора мыши на число - состояние снежного покрова и степень покрытия местности в баллах.